Wind_Speed
45 50 50 57 56 53 50 46 43 39 37 37 39 38 41 45 49 49 47 45 44 43 42 41 39 37 35 32 31 30 30 28 29 28 30 31 33 33 32 32 31 34 36 34 36 36 39 40 42 42 42 44 46 47
39 52 59 59 56 52 49 45 43 39 35 36 36 38 38 42 45 45 45 45 44 43 43 42 42 40 38 37 36 37 36 34 35 33 33 34 35 36 36 36 34 35 37 37 37 38 40 43 44 44 45 48 48 48
51 56 57 56 55 51 48 44 40 39 37 34 33 34 35 36 38 40 42 43 43 43 44 44 43 42 42 41 40 41 40 41 39 38 37 36 36 35 37 37 38 36 39 39 39 38 41 43 43 46 52 52 50 50
39 48 58 53 51 51 48 45 41 37 36 35 33 31 31 31 33 34 35 37 40 41 42 43 43 44 43 43 43 43 43 42 41 40 39 38 39 39 38 39 41 37 41 40 42 42 45 44 48 52 53 53 52 53
36 39 42 55 48 49 46 46 43 40 37 34 33 33 31 29 28 29 30 31 33 35 36 36 39 40 41 42 42 42 43 41 38 37 37 37 38 39 40 41 38 34 36 40 41 42 44 47 50 52 52 51 53 54
35 36 39 47 52 43 44 43 43 41 40 38 35 33 32 31 31 31 28 27 27 29 31 32 33 35 36 37 36 35 34 35 36 36 37 37 35 37 41 39 33 29 34 38 39 40 42 45 49 50 51 52 53 54
31 32 30 36 42 51 40 41 43 42 41 40 38 36 34 33 32 32 32 30 31 30 30 31 31 32 33 32 32 32 32 33 34 36 36 36 35 38 40 39 30 36 37 38 40 42 46 49 50 50 51 52 53 54
28 28 29 27 31 37 46 44 36 40 41 40 40 39 38 36 34 33 31 31 32 33 34 35 33 29 29 30 32 32 32 34 35 35 36 34 37 39 42 33 37 39 41 43 45 46 48 50 52 53 54 54 54 56
28 24 22 23 25 28 31 34 46 38 37 40 40 39 38 37 35 34 34 33 33 34 34 33 32 29 28 29 30 31 32 34 36 37 37 40 41 42 39 41 43 44 46 46 45 45 46 47 48 48 49 53 57 61
40 36 31 27 23 25 28 36 34 40 45 40 39 38 37 36 34 34 34 34 34 35 35 33 31 32 31 30 31 33 34 37 40 41 43 45 46 43 42 43 43 44 45 46 46 45 46 50 50 51 55 58 61 64
42 41 38 34 32 28 25 27 34 37 36 34 34 35 33 34 34 33 35 35 35 36 35 34 32 31 31 32 30 31 34 38 41 42 43 45 45 42 42 40 41 42 44 46 48 50 51 52 53 55 60 62 64 66
43 43 39 38 36 35 33 30 29 30 34 36 34 31 32 33 34 36 36 36 35 35 34 30 29 30 30 31 34 36 35 37 40 40 41 42 38 38 38 41 45 47 47 47 50 52 54 56 58 60 62 64 65 64
33 42 41 42 40 39 39 36 34 32 33 33 35 36 35 34 36 35 34 33 30 28 27 27 29 32 34 35 37 39 41 42 40 41 42 42 43 43 45 47 49 50 51 53 55 57 58 60 62 63 64 62 64 67
27 31 38 36 42 42 41 40 39 37 35 36 35 37 39 41 41 39 38 37 35 35 36 37 38 38 37 37 39 41 43 44 47 48 48 49 50 53 55 56 55 55 57 57 57 59 61 61 60 60 62 65 62 61
28 29 30 30 32 37 41 41 40 39 42 43 42 42 44 43 43 42 42 44 44 44 44 44 45 45 44 44 44 45 46 48 50 52 53 54 56 56 55 55 56 57 57 58 58 57 56 57 60 62 60 59 60 65
21 25 28 31 33 35 38 38 37 38 39 40 43 42 43 42 42 43 44 44 46 47 48 49 50 51 50 49 48 46 46 47 48 48 49 49 51 52 53 55 56 56 54 52 53 56 60 61 58 56 60 64 64 64
12 13 16 19 23 28 32 36 38 40 41 41 40 42 43 44 44 44 45 45 46 47 49 51 51 51 51 49 47 46 44 42 44 48 51 50 49 47 45 45 46 48 53 56 56 56 55 57 61 63 60 61 62 60
13 12 12 12 12 13 15 17 20 23 27 31 34 39 42 43 44 44 44 45 46 48 49 49 50 49 49 50 47 45 41 40 43 45 45 45 45 46 47 49 50 51 50 53 57 58 57 57 58 59 59 58 56 55
14 14 14 14 14 13 13 13 13 14 15 17 18 20 22 24 27 30 34 38 42 45 47 47 49 48 46 43 40 39 39 41 41 41 42 44 46 48 51 53 55 56 54 52 54 56 57 57 55 55 54 54 53 54
17 18 19 19 19 19 19 19 19 19 20 21 22 23 23 24 25 26 27 28 30 32 32 32 34 34 35 37 39 41 42 43 42 41 38 38 38 40 43 45 47 49 50 51 52 51 51 51 52 53 54 55 58 57
22 23 23 24 25 25 25 25 26 26 27 27 28 28 29 31 31 32 32 33 33 33 33 31 29 27 29 30 31 33 33 34 35 35 36 40 43 47 49 49 48 48 48 49 50 50 51 52 54 56 58 55 56 56
29 29 30 31 31 31 32 32 32 33 33 33 33 33 34 34 34 35 34 32 31 28 26 25 26 27 27 28 28 27 29 33 37 39 41 45 47 48 48 48 48 49 50 51 52 54 55 57 58 57 57 59 57 55
38 38 39 39 39 39 38 38 38 37 36 36 35 34 33 33 33 31 29 27 26 26 25 24 24 24 24 27 29 32 34 37 40 43 45 46 48 49 50 51 52 51 52 54 56 57 57 57 59 61 61 57 55 53
46 46 47 47 46 45 43 42 40 39 37 35 34 32 30 28 26 25 25 25 24 23 22 24 27 27 29 32 34 36 39 42 44 46 48 48 48 50 52 53 55 56 57 57 57 58 60 61 61 59 57 55 54 53
49 49 49 48 47 45 42 39 35 33 32 29 26 24 22 21 20 19 18 20 24 27 28 28 29 31 33 35 38 41 44 47 50 50 51 52 53 53 55 57 58 58 59 59 60 60 60 59 59 57 55 55 55 54
35 36 37 34 32 31 29 28 30 28 26 24 24 21 21 23 22 21 22 25 27 30 31 32 34 36 38 41 45 47 50 51 52 54 54 55 55 55 56 56 57 58 59 59 58 57 56 56 56 55 55 56 57 56
5 9 8 10 13 14 17 18 25 26 24 23 19 21 27 28 27 29 29 27 28 31 33 35 39 42 45 48 50 52 53 54 55 55 56 57 58 58 59 59 58 56 55 56 57 57 56 55 55 55 55 55 56 55
2 5 10 11 10 9 11 11 13 14 18 23 24 25 27 26 24 25 27 29 33 37 40 43 45 48 50 51 53 53 53 55 58 58 55 54 54 53 53 53 53 53 54 56 56 57 57 57 57 56 56 56 56 56
2 6 6 7 9 11 12 14 16 18 20 22 22 20 21 25 29 32 35 38 41 43 46 48 51 51 51 51 53 56 56 55 54 54 55 54 55 55 55 55 55 56 55 56 56 55 54 54 56 58 58 58 57 56
7 9 9 7 8 8 9 10 12 14 17 20 23 26 29 33 36 39 42 45 47 49 50 50 51 53 54 55 54 52 52 52 52 53 54 54 55 54 54 54 54 53 51 49 48 50 54 55 56 56 57 56 52 48
10 10 11 12 14 15 18 19 22 24 27 29 32 34 37 41 43 45 46 48 50 51 51 51 52 51 51 51 51 53 54 55 56 55 54 53 52 51 50 48 46 45 45 47 49 50 51 50 52 52 52 49 45 41
15 16 18 19 21 22 24 26 29 31 34 36 38 40 43 45 45 46 46 47 47 47 48 48 49 50 52 54 55 55 55 53 51 50 49 47 46 44 42 41 42 44 46 46 46 46 47 48 50 50 48 44 39 34
23 24 25 26 28 30 31 33 35 36 36 36 36 36 36 37 39 41 43 46 47 48 49 50 51 52 53 53 53 52 52 51 49 47 45 42 39 37 38 41 43 42 42 42 42 43 44 45 48 48 43 39 33 28
Wind_Direction
186 193 195 189 174 179 181 182 184 184 188 188 188 190 194 199 203 208 210 214 216 219 223 228 233 239 244 248 252 255 257 261 261 259 260 259 260 262 264 264 265 266 271 276 277 284 288 292 295 301 307 309 305 306
186 187 181 173 177 181 182 183 184 184 188 189 190 193 196 199 204 209 212 216 220 224 228 232 237 241 245 249 252 256 260 261 263 264 262 260 261 262 265 266 268 270 272 277 281 286 291 294 298 300 305 301 302 304
188 179 177 179 180 184 184 186 187 189 190 190 192 194 199 205 208 211 214 217 221 226 231 235 240 243 246 249 251 254 258 260 261 261 261 262 264 265 266 268 270 273 277 281 284 288 292 294 298 298 299 299 304 304
186 181 182 181 186 187 187 189 190 193 195 197 197 197 199 203 209 213 216 221 225 229 233 236 240 244 247 249 251 255 257 258 260 262 264 266 267 267 269 271 272 279 281 285 286 290 290 294 295 299 299 302 303 304
187 191 190 184 187 190 192 194 194 195 199 202 203 206 208 207 212 217 219 223 227 232 237 242 245 248 250 253 255 256 259 262 264 266 267 267 268 271 272 273 280 284 285 284 287 288 290 295 296 295 297 300 300 301
187 195 194 195 189 193 197 199 200 200 203 206 209 212 214 216 221 225 226 227 232 236 239 243 248 252 254 256 258 262 265 267 268 268 267 268 273 273 275 279 285 282 279 281 285 287 289 289 291 294 297 298 300 300
186 195 197 197 196 197 198 202 204 205 209 210 213 215 218 222 224 228 231 233 237 240 243 245 246 251 257 262 264 265 265 266 268 270 274 276 277 278 280 282 288 282 281 284 286 288 288 290 293 295 297 298 297 298
181 178 187 196 210 209 205 204 207 211 214 215 217 219 222 225 227 232 235 237 240 243 246 249 253 254 259 262 264 267 268 269 270 272 273 275 276 279 281 286 281 283 285 288 290 290 292 294 297 298 297 298 299 300
192 189 187 196 201 203 204 208 211 208 212 219 222 224 227 229 232 235 239 241 244 246 247 250 255 258 258 263 266 268 270 272 274 275 276 275 275 279 284 285 286 288 289 288 289 291 295 297 299 298 296 297 299 300
189 195 211 200 195 199 208 203 204 211 217 223 223 225 227 230 234 237 240 243 245 248 251 256 258 261 263 264 266 270 272 272 274 274 275 276 278 282 284 284 286 287 287 286 285 289 295 299 300 297 296 297 299 301
193 197 202 207 209 198 199 204 212 213 212 213 219 225 228 230 232 238 243 245 247 250 254 256 262 268 273 273 270 267 272 275 274 275 277 280 282 283 281 282 289 290 288 286 285 288 294 298 298 296 297 299 301 302
192 202 202 207 208 207 205 210 217 217 217 221 221 224 225 233 242 246 245 246 249 251 255 258 264 270 270 268 266 272 278 277 278 280 281 283 285 286 287 285 286 290 292 292 292 293 293 294 295 295 297 299 300 301
192 196 203 209 213 217 218 215 216 218 220 224 225 227 230 235 238 239 243 245 251 257 258 258 260 262 265 268 272 274 275 276 277 277 282 285 286 287 286 289 292 292 292 293 293 294 294 294 294 296 297 298 297 299
207 204 205 208 215 218 218 220 221 219 218 219 225 231 232 235 239 244 248 250 252 255 260 263 264 266 268 271 272 273 276 277 278 278 281 283 285 286 289 293 294 294 294 293 292 293 293 292 293 293 293 296 297 298
208 211 215 221 221 221 220 223 223 226 227 229 232 236 240 242 246 250 253 257 260 262 264 264 264 266 269 273 274 276 279 281 282 284 286 289 291 292 292 292 291 291 290 290 290 287 286 288 291 294 295 297 301 305
204 211 218 224 226 229 230 231 236 238 239 241 241 245 247 249 251 254 255 257 260 263 264 266 268 269 271 274 276 278 281 283 287 289 290 290 290 289 288 287 287 286 284 282 282 285 289 291 290 294 300 303 303 302
186 193 205 213 223 229 233 235 237 239 240 243 245 247 249 250 251 251 252 253 255 256 258 260 262 265 268 270 273 277 281 284 282 279 279 279 279 278 277 274 271 271 276 281 284 284 285 292 300 303 301 300 300 301
196 201 207 209 210 214 221 229 238 242 246 250 252 252 253 254 256 256 256 256 256 256 258 260 263 266 270 273 276 279 280 276 273 273 273 274 275 276 276 277 276 277 279 285 294 300 301 297 296 296 296 297 299 301
215 219 220 222 223 225 227 234 237 241 246 251 255 258 259 260 260 261 262 263 264 265 265 267 268 270 273 275 275 271 267 267 270 272 274 275 276 279 285 290 295 299 299 295 293 292 293 294 296 297 298 299 299 301
237 236 236 238 241 244 247 250 253 258 262 266 267 269 272 273 273 271 270 270 269 270 270 272 272 272 269 268 268 271 274 277 282 287 289 291 291 290 291 292 293 293 291 291 292 294 295 296 297 298 300 302 302 302
253 252 252 252 251 251 252 255 259 261 264 267 270 272 274 276 277 277 278 277 276 276 277 278 279 279 278 280 280 282 281 282 284 290 295 297 299 301 302 299 296 294 294 294 295 295 296 298 299 299 299 300 303 304
262 261 261 261 262 262 262 263 265 266 267 269 271 273 274 273 272 272 272 271 271 272 272 275 276 275 274 275 279 282 285 290 295 298 303 305 304 302 298 296 295 295 296 296 297 297 298 298 299 300 303 305 304 305
264 263 263 263 264 265 266 268 270 272 273 274 272 271 270 269 269 268 263 262 265 272 270 263 261 265 271 275 280 286 290 296 301 305 304 303 300 297 296 295 294 295 296 298 300 300 301 301 302 302 303 303 303 303
265 264 264 264 264 265 266 267 268 268 268 266 263 260 258 256 256 257 261 264 261 256 255 265 274 277 279 281 285 290 296 300 301 301 300 299 299 297 296 296 297 298 299 300 300 300 301 301 302 302 301 301 301 302
262 262 261 261 262 262 262 261 259 254 251 248 244 244 245 246 248 254 260 260 260 267 274 277 276 279 285 290 292 293 295 296 296 298 300 300 299 297 297 297 297 297 298 299 299 299 299 299 300 300 300 299 300 300
259 257 255 255 254 255 254 247 235 230 228 225 228 239 248 248 249 254 274 273 275 277 273 273 278 283 287 287 289 291 292 294 296 298 299 300 298 297 297 297 297 296 297 298 299 299 299 299 299 299 299 299 298 299
227 161 169 219 240 251 242 243 230 222 228 228 237 261 259 255 258 269 267 266 268 272 275 279 282 284 287 290 293 294 295 296 297 299 300 299 297 296 296 296 297 297 297 297 298 299 299 300 300 300 299 299 298 298
159 166 183 209 236 228 209 208 229 235 240 243 252 255 254 257 256 258 263 267 272 275 278 280 284 287 289 292 295 296 296 297 298 299 300 301 300 300 300 301 301 302 302 303 304 304 305 304 304 303 302 301 299 296
29 331 290 238 212 214 213 232 247 244 241 241 243 249 257 262 267 270 272 275 277 278 281 285 287 289 292 295 296 296 297 298 299 301 302 303 303 304 305 304 305 305 305 306 306 306 306 306 306 306 305 303 300 295
235 241 221 213 213 221 232 239 252 262 267 268 269 270 271 273 276 278 280 282 283 286 288 289 293 295 295 295 296 297 298 299 299 300 301 301 301 301 302 303 303 304 304 305 306 307 309 310 310 310 310 309 306 300
246 246 248 256 266 271 273 275 276 277 277 278 279 280 281 282 283 284 286 287 288 290 292 292 293 294 295 297 298 298 300 301 301 302 302 301 302 302 303 303 304 305 307 309 310 311 312 313 316 316 315 312 308 301
270 272 274 275 276 277 278 279 281 282 283 284 286 286 287 287 288 289 289 290 291 291 292 293 294 295 296 297 298 300 300 301 301 302 302 303 303 304 305 306 307 308 309 310 312 315 317 319 322 322 320 317 311 300
270 272 274 276 278 279 281 282 283 285 287 289 290 291 291 291 291 292 292 292 293 293 293 294 294 295 296 297 298 299 299 300 301 301 302 302 303 305 306 307 308 309 311 314 316 319 322 323 327 328 327 323 316 304
Height
5538 5549 5558 5568 5581 5593 5602 5611 5619 5627 5634 5641 5648 5655 5662 5670 5677 5684 5692 5698 5704 5709 5713 5717 5722 5726 5730 5733 5735 5737 5738 5740 5740 5740 5741 5741 5740 5741 5742 5743 5743 5742 5741 5741 5738 5737 5735 5732 5728 5726 5722 5717 5712 5708
5538 5547 5558 5569 5582 5593 5602 5610 5618 5626 5633 5640 5647 5653 5660 5666 5672 5680 5687 5693 5698 5704 5708 5712 5716 5720 5723 5725 5728 5728 5730 5732 5731 5733 5733 5733 5733 5733 5734 5733 5734 5734 5732 5731 5731 5728 5724 5721 5718 5715 5710 5706 5702 5697
5541 5549 5560 5572 5583 5593 5601 5610 5617 5625 5632 5639 5646 5652 5658 5664 5669 5675 5681 5687 5692 5697 5702 5705 5709 5712 5715 5718 5720 5721 5721 5722 5722 5723 5723 5724 5725 5725 5724 5725 5723 5725 5720 5720 5719 5718 5714 5710 5707 5703 5698 5693 5689 5683
5544 5553 5563 5573 5583 5592 5600 5609 5616 5624 5631 5638 5644 5650 5656 5661 5666 5671 5676 5681 5686 5690 5694 5698 5700 5703 5706 5708 5711 5712 5712 5713 5713 5714 5714 5715 5716 5715 5716 5714 5713 5716 5711 5709 5707 5704 5701 5699 5695 5690 5684 5680 5674 5670
5547 5556 5564 5573 5582 5591 5599 5607 5614 5622 5629 5635 5641 5647 5653 5658 5662 5667 5672 5676 5680 5685 5688 5691 5692 5695 5697 5699 5701 5702 5702 5703 5705 5706 5706 5706 5705 5705 5705 5704 5706 5706 5701 5698 5695 5691 5688 5686 5681 5677 5673 5669 5663 5658
5548 5556 5565 5573 5581 5589 5597 5605 5612 5619 5626 5632 5638 5644 5649 5654 5659 5663 5667 5671 5675 5678 5681 5684 5686 5687 5689 5690 5692 5693 5695 5695 5695 5695 5696 5696 5697 5696 5694 5696 5699 5694 5689 5685 5684 5681 5677 5673 5669 5666 5662 5657 5652 5645
5549 5557 5564 5572 5579 5587 5594 5602 5609 5616 5623 5629 5635 5640 5645 5650 5654 5657 5663 5667 5669 5671 5674 5677 5678 5680 5682 5684 5685 5685 5685 5685 5685 5685 5686 5686 5686 5685 5684 5685 5684 5679 5677 5676 5673 5669 5665 5661 5657 5653 5649 5644 5638 5631
5550 5556 5563 5569 5577 5584 5592 5599 5606 5613 5619 5625 5630 5635 5640 5644 5648 5652 5655 5659 5662 5665 5667 5669 5672 5676 5676 5676 5675 5676 5675 5675 5676 5676 5676 5676 5675 5673 5673 5675 5670 5668 5665 5663 5660 5656 5651 5647 5643 5639 5633 5628 5623 5618
5549 5556 5563 5570 5577 5583 5589 5594 5601 5607 5613 5619 5624 5629 5634 5638 5642 5646 5649 5652 5655 5658 5659 5661 5665 5668 5669 5668 5667 5666 5666 5666 5667 5667 5666 5664 5664 5664 5664 5661 5658 5655 5652 5649 5646 5643 5639 5634 5630 5625 5619 5614 5608 5602
5548 5556 5561 5568 5574 5580 5585 5590 5596 5602 5608 5613 5619 5623 5627 5631 5636 5639 5642 5644 5647 5649 5651 5654 5657 5657 5659 5659 5659 5659 5658 5657 5655 5656 5653 5652 5652 5654 5650 5648 5646 5643 5639 5636 5633 5630 5627 5621 5616 5611 5606 5600 5593 5586
5547 5554 5560 5565 5571 5577 5581 5586 5592 5598 5602 5607 5613 5617 5622 5625 5628 5631 5633 5636 5639 5641 5643 5646 5648 5649 5649 5649 5649 5647 5645 5644 5644 5644 5642 5641 5642 5641 5638 5636 5633 5630 5627 5623 5620 5616 5612 5607 5602 5597 5591 5584 5577 5570
5545 5551 5556 5562 5568 5573 5578 5583 5587 5593 5598 5603 5608 5611 5614 5618 5621 5623 5624 5628 5630 5632 5634 5638 5640 5639 5638 5638 5636 5635 5634 5633 5632 5632 5629 5628 5630 5626 5624 5622 5620 5617 5614 5611 5607 5603 5598 5593 5587 5580 5574 5567 5560 5552
5542 5548 5553 5558 5563 5569 5574 5578 5583 5587 5592 5596 5601 5605 5608 5610 5612 5614 5615 5619 5623 5624 5626 5627 5627 5627 5627 5627 5625 5624 5621 5621 5621 5619 5618 5618 5616 5613 5610 5608 5605 5602 5599 5596 5592 5586 5581 5575 5569 5563 5557 5551 5545 5537
5538 5543 5549 5554 5558 5562 5568 5572 5578 5582 5586 5590 5594 5596 5599 5601 5603 5606 5609 5612 5614 5615 5615 5615 5615 5616 5616 5614 5613 5611 5609 5608 5605 5606 5606 5604 5601 5599 5597 5593 5589 5586 5582 5577 5573 5569 5564 5558 5552 5547 5541 5535 5528 5521
5532 5536 5542 5547 5552 5557 5560 5565 5570 5574 5577 5581 5584 5587 5589 5592 5595 5597 5599 5600 5601 5602 5604 5605 5604 5604 5603 5602 5601 5599 5596 5594 5592 5590 5590 5588 5584 5582 5579 5576 5572 5568 5564 5560 5556 5552 5548 5543 5538 5531 5524 5518 5513 5506
5527 5531 5534 5539 5543 5548 5552 5556 5560 5564 5567 5571 5574 5576 5579 5582 5584 5586 5588 5590 5591 5592 5592 5592 5592 5591 5589 5588 5588 5586 5583 5580 5578 5576 5575 5572 5569 5567 5564 5560 5556 5553 5549 5545 5541 5538 5533 5528 5523 5517 5509 5503 5496 5489
5524 5528 5531 5534 5537 5540 5544 5547 5550 5554 5557 5560 5562 5565 5568 5570 5572 5574 5575 5577 5578 5579 5580 5579 5579 5578 5577 5576 5575 5574 5571 5569 5567 5564 5562 5559 5556 5553 5550 5546 5542 5539 5536 5532 5527 5522 5518 5512 5506 5500 5494 5486 5480 5473
5524 5527 5529 5532 5534 5537 5539 5541 5544 5546 5548 5550 5553 5555 5557 5559 5560 5562 5562 5564 5565 5566 5566 5566 5565 5564 5563 5562 5561 5561 5559 5557 5554 5552 5549 5546 5542 5539 5536 5532 5528 5525 5521 5516 5510 5505 5500 5495 5489 5483 5477 5472 5468 5461
5522 5524 5527 5529 5531 5534 5536 5538 5540 5541 5543 5545 5546 5547 5548 5549 5549 5550 5551 5551 5551 5551 5551 5551 5551 5551 5551 5550 5549 5547 5544 5541 5540 5537 5535 5532 5528 5524 5519 5515 5511 5507 5503 5499 5495 5489 5484 5478 5473 5467 5462 5457 5452 5446
5516 5519 5522 5524 5526 5528 5531 5533 5534 5535 5536 5537 5539 5540 5540 5541 5541 5541 5541 5541 5540 5539 5539 5539 5539 5539 5538 5537 5535 5533 5532 5529 5526 5523 5521 5518 5514 5510 5507 5503 5499 5494 5489 5484 5479 5474 5469 5465 5458 5451 5446 5441 5435 5430
5511 5513 5516 5518 5520 5523 5525 5526 5527 5529 5530 5531 5531 5531 5532 5532 5531 5531 5531 5530 5529 5529 5529 5529 5528 5528 5526 5525 5523 5523 5521 5519 5516 5513 5510 5505 5502 5498 5493 5488 5483 5478 5473 5469 5465 5461 5454 5448 5443 5438 5432 5426 5419 5413
5502 5504 5507 5509 5511 5513 5516 5517 5519 5520 5521 5521 5521 5521 5522 5522 5521 5521 5520 5519 5519 5519 5520 5520 5519 5518 5517 5516 5515 5513 5511 5508 5504 5502 5499 5495 5490 5484 5478 5473 5469 5464 5459 5453 5449 5444 5440 5434 5427 5420 5414 5409 5403 5397
5493 5495 5496 5498 5501 5503 5506 5506 5507 5508 5509 5510 5510 5510 5510 5510 5510 5510 5510 5510 5511 5511 5510 5510 5509 5509 5509 5508 5505 5503 5500 5496 5493 5489 5484 5479 5474 5469 5463 5457 5452 5449 5445 5439 5433 5427 5422 5416 5410 5404 5398 5392 5386 5381
5479 5481 5482 5484 5487 5490 5493 5494 5494 5496 5496 5498 5498 5499 5499 5500 5500 5500 5501 5502 5501 5501 5502 5502 5501 5501 5499 5497 5494 5491 5487 5483 5478 5474 5470 5465 5460 5453 5447 5442 5437 5432 5426 5422 5416 5411 5405 5398 5392 5386 5380 5375 5370 5364
5464 5464 5467 5468 5471 5476 5478 5480 5481 5482 5485 5486 5488 5489 5490 5491 5493 5493 5494 5494 5493 5494 5494 5493 5491 5490 5488 5485 5482 5478 5473 5468 5463 5458 5455 5451 5444 5438 5432 5426 5420 5415 5410 5405 5400 5394 5387 5381 5375 5369 5364 5358 5353 5348
5446 5448 5453 5455 5458 5463 5466 5469 5470 5473 5476 5478 5481 5482 5484 5484 5485 5486 5487 5485 5484 5484 5483 5482 5480 5478 5476 5472 5469 5464 5459 5453 5447 5442 5439 5434 5428 5422 5417 5412 5407 5400 5392 5386 5381 5376 5371 5364 5359 5353 5347 5341 5335 5330
5442 5445 5449 5452 5455 5457 5459 5462 5464 5468 5470 5473 5475 5476 5477 5477 5478 5479 5477 5476 5475 5473 5472 5470 5468 5464 5460 5457 5453 5447 5442 5436 5431 5426 5421 5416 5410 5404 5399 5394 5388 5383 5377 5370 5364 5358 5353 5348 5342 5335 5329 5324 5317 5313
5447 5449 5451 5453 5453 5455 5456 5458 5461 5463 5465 5467 5469 5468 5468 5469 5469 5468 5468 5467 5465 5462 5459 5456 5453 5450 5446 5442 5437 5432 5426 5420 5414 5409 5405 5399 5392 5387 5381 5375 5369 5364 5358 5351 5345 5338 5333 5327 5321 5315 5310 5304 5299 5293
5448 5450 5451 5451 5452 5453 5455 5457 5458 5459 5461 5461 5462 5461 5461 5461 5460 5459 5457 5454 5452 5450 5446 5442 5438 5435 5431 5426 5421 5416 5411 5405 5399 5393 5386 5381 5375 5369 5364 5358 5353 5347 5341 5335 5326 5320 5315 5309 5303 5296 5289 5283 5276 5270
5451 5451 5451 5451 5452 5453 5454 5455 5455 5456 5456 5455 5455 5454 5453 5451 5449 5446 5443 5440 5436 5433 5431 5427 5422 5417 5413 5408 5404 5400 5395 5390 5385 5379 5373 5367 5361 5356 5350 5344 5338 5333 5327 5321 5315 5308 5300 5293 5285 5278 5269 5261 5255 5249
5449 5450 5450 5450 5450 5450 5450 5450 5449 5448 5448 5446 5445 5444 5441 5438 5435 5432 5429 5424 5420 5417 5414 5409 5405 5401 5397 5392 5387 5382 5378 5373 5367 5362 5356 5350 5345 5340 5335 5329 5324 5318 5313 5307 5301 5294 5287 5279 5271 5262 5253 5245 5238 5233
5445 5445 5445 5444 5444 5444 5443 5442 5440 5439 5438 5436 5434 5431 5428 5424 5421 5418 5413 5409 5405 5402 5398 5394 5390 5385 5381 5376 5371 5367 5361 5356 5351 5346 5341 5336 5331 5326 5321 5316 5311 5306 5300 5294 5288 5281 5274 5266 5258 5249 5239 5231 5225 5220
5439 5438 5437 5437 5436 5434 5433 5432 5430 5428 5426 5423 5421 5418 5414 5410 5407 5403 5399 5395 5391 5387 5383 5379 5374 5370 5365 5360 5355 5350 5345 5340 5336 5331 5327 5322 5318 5314 5310 5305 5299 5294 5289 5283 5277 5270 5263 5255 5247 5238 5229 5220 5214 5210